[[{"header":{"parameterUnit":"m.s-1","parameterCategory":1,"la1":30.2991,"la2":30.254,"lo1":-89.0895,"lo2":-89.0444,"dy":0.0017,"dx":0.0017,"nx":28,"ny":28,"refTime":"2023-10-03T09:00:00:Z","depth":0,"parameterNumber":2,"parameterNumberName":"U-component_of_WINDS"},"data":[0,0,0,0,0,0,0,0,0,0,0,0,0,0,0,0,0,0,0,0,0,0,0,0,0,0,0,0,0,0,0,0,0,0,0,0,0,0,0,0,0,0,0,0,0,0,0,0,0,0,0,0,0,0,0,0,0,0,-3.3939,-3.3941,0,-3.4084,-3.4086,-3.4088,-3.3978,-3.3973,-3.3969,-3.3964,-3.4119,-3.4127,-3.4135,0,0,0,0,0,0,0,0,0,0,0,0,0,-3.3572,-3.358,-3.3939,-3.3941,-3.3943,-3.4084,-3.4086,-3.4088,-3.3979,-3.3973,-3.3967,-3.3962,-3.4116,-3.4126,-3.4136,0,0,0,0,0,0,0,0,0,0,0,0,0,-3.3726,-3.3582,-3.3939,-3.3905,-3.3903,-3.4084,-3.4086,-3.4088,-3.398,-3.3973,-3.3966,-3.3959,-3.4112,-3.4125,-3.4138,-3.436,0,0,-3.4177,-3.4182,0,0,0,0,0,0,0,0,-3.3718,-3.374,-3.3908,-3.3908,-3.3906,-3.4006,-3.4013,-3.418,-3.3982,-3.3951,-3.3964,-3.3956,-3.4087,-3.4102,-3.4145,-3.4367,-3.4374,-3.4178,-3.4186,-3.4191,-3.4195,0,0,0,0,0,0,0,-3.3707,-3.3733,-3.3996,-3.3911,-3.391,-3.3885,-3.3898,-3.4044,-3.4058,-3.3953,-3.3946,-3.3964,-3.4085,-3.4133,-3.4148,-3.4376,-3.4178,-3.4189,-3.4197,-3.4202,-3.479,-3.4798,0,0,0,0,0,0,-3.3699,-3.3725,-3.3992,-3.4001,-3.3792,-3.3897,-3.3912,-3.3981,-3.4056,-3.406,-3.397,-3.3959,-3.4114,-3.4133,-3.4153,-3.4419,-3.4191,-3.4203,-3.4211,-3.4782,-3.4792,-3.4801,0,0,0,0,0,0,-3.3691,-3.3724,-3.3986,-3.3861,-3.3892,-3.3911,-3.3989,-3.3988,-3.4035,-3.4068,-3.4071,-3.4016,-3.4109,-3.4135,-3.4309,-3.4423,-3.4209,-3.4221,-3.4773,-3.4785,-3.4796,-3.4954,0,0,0,0,0,0,-3.3681,-3.3722,-3.3805,-3.3863,-3.3899,-3.4139,-3.3996,-3.3996,-3.4057,-3.4043,-3.4112,-3.4117,-3.4106,-3.4291,-3.4322,-3.4437,-3.4231,-3.4763,-3.4779,-3.4793,-3.4939,-3.497,-3.4996,0,0,0,0,0,-3.3669,-3.3845,-3.381,-3.3843,-3.4004,-3.4146,-3.4167,-3.4149,-3.4066,-3.4151,-3.4173,-3.4114,-3.4405,-3.431,-3.4344,-3.4464,-3.4756,-3.4774,-3.4791,-3.4926,-3.4964,-3.4996,0,0,0,0,0,0,-3.3801,-3.3852,-3.3814,-3.4014,-3.4076,-3.4127,-3.4234,-3.4189,-3.4278,-3.4262,-3.4237,-3.4254,-3.4438,-3.4468,-3.4361,-3.4684,-3.4568,-3.4593,-3.4658,-3.4694,-3.4723,-3.4712,-3.4241,0,0,0,0,0,-3.3853,-3.3963,-3.4001,-3.4174,-3.4207,-3.4216,-3.4277,-3.4257,-3.4322,-3.4348,-3.4383,-3.4449,-3.4555,-3.4626,-3.4726,-3.4942,-3.4957,-3.5042,-3.5071,-3.5094,-3.5117,-3.5236,-3.5275,-3.4859,-3.4859,-3.4859,0,0,-3.3963,-3.4004,-3.4075,-3.4202,-3.4248,-3.4364,-3.4239,-3.4366,-3.4452,-3.4368,-3.4535,-3.4563,-3.4636,-3.4833,-3.4921,-3.4864,-3.5235,-3.5117,-3.5135,-3.5146,-3.5258,-3.5297,-3.5332,-3.4871,-3.4869,-3.4867,0,0,-3.4222,-3.4263,-3.4412,-3.4461,-3.4531,-3.4536,-3.4572,-3.463,-3.4644,-3.4811,-3.4751,-3.4854,-3.5037,-3.5092,-3.5144,-3.5424,-3.5374,-3.5457,-3.5608,-3.5724,-3.5757,-3.5786,-3.5887,-3.5924,-3.5479,-3.548,-3.548,0,-3.435,-3.452,-3.4495,-3.4627,-3.4685,-3.4613,-3.4765,-3.4813,-3.4914,-3.4957,-3.4891,-3.512,-3.5164,-3.5373,-3.5441,-3.5485,-3.5527,-3.545,-3.5754,-3.5782,-3.5809,-3.5906,-3.5944,-3.549,-3.5488,-3.5487,-3.5486,0,-3.4674,-3.4794,-3.4906,-3.5003,-3.5074,-3.5216,-3.5214,-3.5289,-3.5264,-3.5276,-3.5447,-3.5497,-3.5606,-3.5654,-3.5631,-3.5861,-3.5823,-3.5756,-3.5639,-3.5859,-3.595,-3.5986,-3.5504,-3.55,-3.5497,-3.5495,0,0,-3.5022,-3.5103,-3.5145,-3.5189,-3.5262,-3.5354,-3.5493,-3.5598,-3.5664,-3.5736,-3.5853,-3.601,-3.5948,-3.6007,-3.599,-3.6091,-3.6312,-3.6011,-3.6013,-3.6067,-3.6571,-3.6622,-3.6666,-3.6279,-3.6286,-3.6291,-3.6565,0,-3.5286,-3.5526,-3.5507,-3.5735,-3.5846,-3.5778,-3.59,-3.5959,-3.5974,-3.6071,-3.6088,-3.6201,-3.6109,-3.6145,-3.6242,-3.6265,-3.6413,-3.6244,-3.639,-3.6396,-3.6376,-3.6713,-3.6767,-3.7024,-3.66,-3.6606,-3.6611,0,-3.5626,-3.5708,-3.5946,-3.6003,-3.6049,-3.6158,-3.6253,-3.6347,-3.6413,-3.6417,-3.6483,-3.6449,-3.6591,-3.6469,-3.6666,-3.6552,-3.661,-3.663,-3.664,-3.6654,-3.6518,-3.6738,-3.7105,-3.7144,-3.6666,-3.6662,-3.6658,0,-3.5858,-3.6028,-3.6193,-3.6232,-3.6302,-3.6381,-3.6414,-3.6473,-3.6537,-3.6621,-3.6663,-3.6763,-3.6819,-3.6898,-3.6893,-3.6804,-3.7094,-3.697,-3.7103,-3.7103,-3.7168,-3.7165,-3.7552,-3.7203,-3.7203,-3.7202,-3.7201,0,-3.6155,-3.6304,-3.6298,-3.64,-3.6565,-3.6543,-3.6708,-3.6733,-3.6786,-3.6893,-3.6841,-3.6942,-3.6928,-3.7031,-3.7028,-3.7193,-3.7218,-3.7227,-3.7224,-3.7232,-3.7232,-3.7272,-3.7254,-3.7212,-3.721,-3.7208,-3.7206,0,-3.6442,-3.6444,-3.662,-3.6671,-3.6688,-3.6808,-3.6853,-3.695,-3.696,-3.7096,-3.7127,-3.7144,-3.7262,-3.7264,-3.74,-3.7398,-3.76,-3.7577,-3.7577,-3.7573,-3.7706,-3.7694,-3.8134,-3.8191,-3.7805,-3.7808,-3.7811,0,-3.6633,-3.6746,-3.6809,-3.6876,-3.6914,-3.7022,-3.7087,-3.7071,-3.7141,-3.7225,-3.7313,-3.7426,-3.7516,-3.7709,-3.7735,-3.7839,-3.7819,-3.7966,-3.7834,-3.7839,-3.7823,-3.7817,-3.7829,-3.7992,-3.7996,-3.8,-3.8003,0,-3.6971,-3.6966,-3.7061,-3.7158,-3.7237,-3.7312,-3.7382,-3.744,-3.7431,-3.7514,-3.7633,-3.7703,-3.7841,-3.7955,-3.8056,-3.8092,-3.8048,-3.8043,-3.808,-3.809,-3.8086,-3.8092,-3.7649,-3.8034,-3.8031,-3.8028,-3.8027,-3.8026,-3.7217,-3.7314,-3.7374,-3.7483,-3.7533,-3.7599,-3.7693,-3.7715,-3.7813,-3.7924,-3.7908,-3.8042,-3.8107,-3.8237,-3.8282,-3.8388,-3.8337,-3.839,-3.8403,-3.8417,-3.8432,-3.8068,-3.8406,-3.8405,-3.8405,-3.8404,-3.8403,0,-3.7554,-3.7589,-3.7688,-3.7787,-3.7873,-3.782,-3.7895,-3.7971,-3.8089,-3.8152,-3.8241,-3.8379,-3.8489,-3.8524,-3.8631,-3.871,-3.8692,-3.8739,-3.8733,-3.8743,-3.8471,-3.8429,-3.8751,-3.8751,-3.8751,-3.8751,-3.8751,-3.8751,-3.7739,-3.7902,-3.7905,-3.8092,-3.8127,-3.8256,-3.8303,-3.8365,-3.8415,-3.8571,-3.8662,-3.8683,-3.8736,-3.8846,-3.8946,-3.8953,-3.8996,-3.9052,-3.9051,-3.8797,-3.8762,-3.8729,-3.8689,-3.9061,-3.9061,-3.9315,-3.9317,-3.9319]},{"header":{"parameterUnit":"m.s-1","parameterCategory":1,"la1":30.2991,"la2":30.254,"lo1":-89.0895,"lo2":-89.0444,"dy":0.0017,"dx":0.0017,"nx":28,"ny":28,"refTime":"2023-10-03T09:00:00:Z","depth":0,"parameterNumber":3,"parameterNumberName":"V-component_of_WINDS"},"data":[0,0,0,0,0,0,0,0,0,0,0,0,0,0,0,0,0,0,0,0,0,0,0,0,0,0,0,0,0,0,0,0,0,0,0,0,0,0,0,0,0,0,0,0,0,0,0,0,0,0,0,0,0,0,0,0,0,0,-1.4703,-1.4703,0,-1.4633,-1.4632,-1.4631,-1.4622,-1.4622,-1.4623,-1.4624,-1.4548,-1.4546,-1.4543,0,0,0,0,0,0,0,0,0,0,0,0,0,-1.4824,-1.4822,-1.4703,-1.4703,-1.4702,-1.4633,-1.4632,-1.4631,-1.4621,-1.4622,-1.4623,-1.4624,-1.4549,-1.4546,-1.4543,0,0,0,0,0,0,0,0,0,0,0,0,0,-1.4764,-1.4821,-1.4704,-1.4689,-1.4687,-1.4633,-1.4632,-1.4631,-1.4621,-1.4622,-1.4623,-1.4624,-1.455,-1.4546,-1.4543,-1.4498,0,0,-1.4531,-1.4529,0,0,0,0,0,0,0,0,-1.4768,-1.476,-1.4692,-1.469,-1.4687,-1.4637,-1.4647,-1.4586,-1.4621,-1.4646,-1.4624,-1.4625,-1.4577,-1.4571,-1.4555,-1.4495,-1.4491,-1.453,-1.4528,-1.4526,-1.4525,0,0,0,0,0,0,0,-1.4772,-1.4763,-1.4675,-1.4691,-1.4688,-1.4684,-1.4676,-1.4635,-1.4607,-1.4644,-1.4643,-1.4635,-1.4576,-1.4559,-1.4553,-1.449,-1.453,-1.4527,-1.4524,-1.4523,-1.4385,-1.4383,0,0,0,0,0,0,-1.4779,-1.4766,-1.4678,-1.4673,-1.4731,-1.4681,-1.4672,-1.4652,-1.4607,-1.4601,-1.4634,-1.4635,-1.4565,-1.4558,-1.4551,-1.4492,-1.4526,-1.4522,-1.452,-1.4386,-1.4384,-1.4383,0,0,0,0,0,0,-1.4782,-1.4772,-1.468,-1.472,-1.4708,-1.4678,-1.4655,-1.465,-1.4634,-1.46,-1.4594,-1.4623,-1.4566,-1.4556,-1.451,-1.449,-1.4521,-1.4517,-1.4388,-1.4386,-1.4384,-1.4378,0,0,0,0,0,0,-1.4786,-1.4773,-1.4757,-1.4719,-1.4706,-1.4643,-1.4654,-1.4648,-1.4627,-1.4627,-1.4588,-1.4582,-1.4566,-1.4516,-1.4507,-1.4485,-1.4514,-1.4389,-1.4387,-1.4384,-1.4379,-1.4376,-1.4372,0,0,0,0,0,-1.479,-1.4758,-1.4756,-1.4746,-1.4686,-1.4642,-1.4634,-1.4617,-1.4626,-1.4608,-1.4586,-1.4583,-1.4494,-1.4512,-1.4501,-1.4478,-1.439,-1.4387,-1.4385,-1.4381,-1.4376,-1.4373,0,0,0,0,0,0,-1.4794,-1.4753,-1.4751,-1.4706,-1.4678,-1.464,-1.4618,-1.4613,-1.4581,-1.4582,-1.4562,-1.4553,-1.4507,-1.4488,-1.4508,-1.443,-1.4443,-1.4437,-1.4444,-1.4439,-1.4436,-1.444,-1.4511,0,0,0,0,0,-1.479,-1.476,-1.4725,-1.4689,-1.4675,-1.4649,-1.463,-1.4619,-1.4588,-1.4575,-1.455,-1.4519,-1.4483,-1.4461,-1.4427,-1.4377,-1.4366,-1.4355,-1.4352,-1.4349,-1.4344,-1.4312,-1.4306,-1.4373,-1.4373,-1.4373,0,0,-1.4781,-1.4755,-1.4737,-1.4689,-1.4666,-1.4632,-1.4639,-1.4604,-1.4578,-1.457,-1.4524,-1.4504,-1.4468,-1.4419,-1.4396,-1.4402,-1.4323,-1.4345,-1.4344,-1.434,-1.4308,-1.4302,-1.4296,-1.4371,-1.4372,-1.4372,0,0,-1.4747,-1.4726,-1.4692,-1.4668,-1.4632,-1.4614,-1.4606,-1.4569,-1.4555,-1.4509,-1.4501,-1.4469,-1.441,-1.4383,-1.4362,-1.4314,-1.4308,-1.4303,-1.4284,-1.4253,-1.4248,-1.4243,-1.4222,-1.4215,-1.4299,-1.4299,-1.4299,0,-1.474,-1.4691,-1.4675,-1.4639,-1.4616,-1.4608,-1.4571,-1.4548,-1.4503,-1.4486,-1.4493,-1.4416,-1.4391,-1.4334,-1.4322,-1.4306,-1.4293,-1.4307,-1.425,-1.4245,-1.424,-1.422,-1.4213,-1.4298,-1.4298,-1.4298,-1.4298,0,-1.4682,-1.4648,-1.4624,-1.458,-1.4555,-1.4519,-1.4495,-1.4472,-1.4462,-1.4443,-1.4394,-1.4364,-1.4321,-1.4308,-1.4299,-1.4247,-1.4251,-1.4255,-1.4267,-1.4233,-1.4214,-1.4206,-1.4297,-1.4297,-1.4298,-1.4298,0,0,-1.465,-1.4595,-1.4587,-1.4565,-1.4523,-1.4495,-1.4457,-1.4416,-1.4394,-1.4363,-1.4328,-1.4277,-1.4278,-1.4254,-1.4241,-1.4215,-1.4173,-1.422,-1.4219,-1.421,-1.411,-1.4106,-1.4098,-1.417,-1.4169,-1.4168,-1.4112,0,-1.4609,-1.4542,-1.4525,-1.4467,-1.4433,-1.4422,-1.4388,-1.4358,-1.4338,-1.4305,-1.4283,-1.4245,-1.4252,-1.4236,-1.421,-1.4184,-1.4153,-1.4189,-1.4135,-1.4133,-1.4142,-1.4088,-1.4084,-1.4033,-1.4105,-1.4104,-1.4103,0,-1.4553,-1.4519,-1.4457,-1.4417,-1.4401,-1.4372,-1.433,-1.4299,-1.4263,-1.425,-1.4221,-1.4211,-1.4168,-1.4183,-1.4121,-1.4146,-1.4123,-1.4107,-1.4104,-1.4097,-1.4114,-1.4076,-1.4017,-1.4008,-1.4091,-1.4092,-1.4093,0,-1.4531,-1.447,-1.4425,-1.4407,-1.4359,-1.4337,-1.4316,-1.4281,-1.4256,-1.4219,-1.4202,-1.4161,-1.4138,-1.4105,-1.4082,-1.4096,-1.4021,-1.4036,-1.4006,-1.4006,-1.3989,-1.399,-1.3923,-1.3979,-1.3979,-1.398,-1.398,0,-1.4485,-1.4447,-1.4414,-1.4385,-1.4341,-1.432,-1.4277,-1.4255,-1.4223,-1.4188,-1.4177,-1.4144,-1.4117,-1.408,-1.4062,-1.4011,-1.4001,-1.3987,-1.3982,-1.3987,-1.3988,-1.3969,-1.3971,-1.3977,-1.3978,-1.3978,-1.3979,0,-1.4454,-1.443,-1.4379,-1.4337,-1.4325,-1.4294,-1.4257,-1.4228,-1.4207,-1.4163,-1.4151,-1.4118,-1.4073,-1.4047,-1.3991,-1.3978,-1.392,-1.3919,-1.3933,-1.393,-1.39,-1.3902,-1.3817,-1.3802,-1.3872,-1.3871,-1.387,0,-1.4425,-1.4395,-1.435,-1.4325,-1.4304,-1.4266,-1.424,-1.4217,-1.419,-1.4144,-1.4119,-1.4073,-1.4035,-1.3963,-1.3933,-1.3888,-1.3883,-1.3856,-1.3876,-1.388,-1.3878,-1.3879,-1.3874,-1.3852,-1.3851,-1.3851,-1.3851,0,-1.4376,-1.4364,-1.4328,-1.4286,-1.4255,-1.4221,-1.4186,-1.4167,-1.4138,-1.4107,-1.4061,-1.4032,-1.3973,-1.3926,-1.3878,-1.3854,-1.3845,-1.3845,-1.3835,-1.3837,-1.3845,-1.3836,-1.392,-1.3846,-1.3847,-1.3847,-1.3847,-1.3847,-1.4342,-1.4314,-1.4276,-1.4234,-1.4206,-1.4173,-1.4142,-1.4117,-1.4078,-1.4028,-1.4017,-1.3967,-1.3927,-1.3862,-1.3836,-1.3795,-1.38,-1.3787,-1.3783,-1.3779,-1.3776,-1.3854,-1.3787,-1.3787,-1.3787,-1.3787,-1.3787,0,-1.4289,-1.4264,-1.4226,-1.4177,-1.4143,-1.414,-1.4101,-1.4072,-1.4028,-1.3992,-1.3954,-1.3899,-1.3852,-1.3817,-1.3769,-1.3742,-1.3737,-1.373,-1.373,-1.3724,-1.3776,-1.3788,-1.3735,-1.3735,-1.3735,-1.3735,-1.3735,-1.3735,-1.4258,-1.4208,-1.4192,-1.4126,-1.41,-1.4051,-1.4029,-1.3997,-1.3967,-1.3906,-1.3867,-1.3845,-1.3808,-1.3756,-1.3712,-1.3702,-1.3683,-1.3676,-1.3666,-1.3715,-1.3721,-1.3726,-1.3737,-1.3673,-1.3673,-1.3616,-1.3616,-1.3615]}]]